[[{"header":{"parameterUnit":"m.s-1","parameterCategory":1,"la1":30.2992,"la2":30.254,"lo1":-89.0895,"lo2":-89.0443,"dy":0.0025,"dx":0.0025,"nx":19,"ny":19,"refTime":"2026-03-25T03:00:00:Z","depth":0,"parameterNumber":2,"parameterNumberName":"U-component_of_WINDS"},"data":[0,0,0,-2.6202,-2.6206,-2.6369,-2.637,-2.6586,-2.6588,0,0,0,0,0,0,0,0,0,0,0,-2.6155,-2.6157,-2.6202,-2.6206,-2.6369,-2.637,-2.6586,-2.6588,0,0,0,0,0,0,0,0,0,0,0,-2.6154,-2.6156,-2.6158,-2.6206,-2.6369,-2.637,-2.6585,-2.646,0,0,0,0,0,0,0,0,0,0,-2.63,-2.6257,-2.6156,-2.6158,-2.6207,-2.6369,-2.637,-2.6454,-2.6468,-2.6514,0,-2.6553,0,-2.6574,-2.6603,-2.6603,0,0,0,-2.6205,-2.6246,-2.6288,-2.6158,-2.6209,-2.6369,-2.6295,-2.6461,-2.6477,-2.6532,-2.6556,-2.6564,-2.6578,-2.6604,-2.6605,-2.6869,-2.6871,0,0,-2.6196,-2.6186,-2.6278,-2.6299,-2.6271,-2.629,-2.63,-2.6471,-2.6497,-2.6557,-2.6569,-2.6581,-2.6606,-2.6607,-2.6868,-2.687,0,0,0,-2.6171,-2.6179,-2.6218,-2.629,-2.6319,-2.6295,-2.6307,-2.649,-2.6503,-2.6572,-2.6584,-2.6607,-2.6609,-2.6867,-2.6869,-2.6919,0,0,0,-2.6165,-2.6164,-2.6214,-2.6209,-2.6316,-2.6406,-2.6322,-2.6491,-2.6511,-2.6583,-2.6607,-2.6612,-2.6865,-2.6868,-2.6915,-2.6945,0,0,0,-2.6144,-2.6162,-2.6186,-2.6208,-2.6278,-2.6403,-2.6426,-2.6495,-2.6518,-2.6604,-2.6612,-2.6865,-2.6867,-2.6911,-2.6938,-2.701,0,0,0,-2.6119,-2.623,-2.6187,-2.6316,-2.6277,-2.6433,-2.6425,-2.6543,-2.6622,-2.6608,-2.6866,-2.6869,-2.691,-2.6934,-2.7006,-2.7068,-2.7093,0,0,-2.6253,-2.6245,-2.6323,-2.6289,-2.645,-2.6409,-2.6579,-2.6663,-2.6682,-2.6806,-2.6813,-2.6917,-2.6938,-2.701,-2.724,-2.7259,0,0,0,-2.6362,-2.6416,-2.6462,-2.6536,-2.6602,-2.6661,-2.672,-2.6751,-2.6858,-2.6743,-2.6963,-2.6977,-2.7019,-2.7049,-2.7066,-2.7103,-2.6882,-2.6882,-2.6882,-2.6535,-2.6553,-2.6681,-2.6719,-2.6792,-2.6852,-2.6913,-2.6966,-2.6964,-2.7016,-2.7052,-2.7189,-2.7224,-2.7236,-2.7275,-2.7088,-2.7088,-2.7088,-2.7088,-2.6732,-2.6812,-2.6807,-2.6929,-2.6948,-2.7053,-2.7117,-2.7111,-2.7212,-2.7163,-2.7201,-2.7144,-2.7257,-2.7292,-2.7092,-2.7092,-2.7091,-2.7091,-2.709,-2.6846,-2.6887,-2.6923,-2.7033,-2.7117,-2.7154,-2.7251,-2.7266,-2.7281,-2.7319,-2.7359,-2.7358,-2.7358,-2.7338,-2.7338,-2.7339,-2.7339,-2.7339,-2.734,-2.6948,-2.6987,-2.7066,-2.7147,-2.7197,-2.7266,-2.733,-2.7381,-2.7442,-2.7445,-2.7446,-2.7438,-2.7266,-2.7221,-2.7347,-2.7346,-2.7345,-2.7344,-2.7344,-2.7137,-2.7097,-2.7218,-2.7269,-2.7366,-2.7449,-2.7468,-2.7571,-2.7616,-2.7664,-2.765,-2.752,-2.7514,-2.7501,-2.7464,-2.7645,-2.7645,-2.7645,-2.7645,-2.7231,-2.723,-2.7358,-2.7438,-2.7519,-2.7549,-2.7688,-2.7741,-2.7789,-2.7818,-2.7795,-2.7748,-2.7734,-2.7736,-2.7718,-2.7684,-2.7917,-2.7917,-2.7918,-2.7348,-2.7356,-2.7469,-2.7514,-2.7592,-2.766,-2.7791,-2.7886,-2.7933,-2.7929,-2.7842,-2.783,-2.7755,-2.773,-2.772,-2.7691,-2.7628,0,0]},{"header":{"parameterUnit":"m.s-1","parameterCategory":1,"la1":30.2992,"la2":30.254,"lo1":-89.0895,"lo2":-89.0443,"dy":0.0025,"dx":0.0025,"nx":19,"ny":19,"refTime":"2026-03-25T03:00:00:Z","depth":0,"parameterNumber":3,"parameterNumberName":"V-component_of_WINDS"},"data":[0,0,0,0.8753,0.8755,0.8842,0.8842,0.8943,0.8944,0,0,0,0,0,0,0,0,0,0,0,0.8722,0.8722,0.8753,0.8755,0.8842,0.8842,0.8943,0.8944,0,0,0,0,0,0,0,0,0,0,0,0.8721,0.8722,0.8722,0.8755,0.8842,0.8842,0.8943,0.8881,0,0,0,0,0,0,0,0,0,0,0.8798,0.8763,0.8722,0.8723,0.8756,0.8841,0.8842,0.8878,0.8885,0.89,0,0.8912,0,0.893,0.895,0.8951,0,0,0,0.8759,0.8758,0.8787,0.8723,0.8757,0.8841,0.8804,0.8882,0.889,0.8909,0.8913,0.8917,0.8931,0.8951,0.8951,0.9025,0.9026,0,0,0.8755,0.8734,0.8781,0.8791,0.8777,0.8801,0.8806,0.8887,0.889,0.8914,0.892,0.8933,0.8951,0.8952,0.9025,0.9026,0,0,0,0.8738,0.873,0.8757,0.8787,0.8803,0.8803,0.881,0.8886,0.8897,0.8921,0.8934,0.8952,0.8953,0.9025,0.9025,0.9012,0,0,0,0.8735,0.872,0.8755,0.8743,0.8801,0.8846,0.8807,0.8892,0.8901,0.8934,0.8952,0.8954,0.9025,0.9025,0.9012,0.9009,0,0,0,0.8718,0.8718,0.8729,0.8742,0.8778,0.8845,0.886,0.8894,0.8909,0.8951,0.8954,0.9025,0.9025,0.9013,0.9009,0.9023,0,0,0,0.8693,0.8715,0.8728,0.8759,0.8777,0.8837,0.886,0.8905,0.8939,0.8952,0.9025,0.9025,0.9013,0.901,0.9023,0.9031,0.9032,0,0,0.8709,0.8716,0.8736,0.875,0.8802,0.8825,0.8875,0.8925,0.8948,0.8999,0.9001,0.9012,0.9009,0.9023,0.9047,0.9048,0,0,0,0.8734,0.8747,0.8766,0.8798,0.8838,0.8872,0.8918,0.8937,0.8981,0.897,0.9022,0.9021,0.903,0.9034,0.9035,0.9044,0.9027,0.9027,0.9027,0.8725,0.8755,0.8789,0.883,0.8861,0.8909,0.8937,0.8971,0.899,0.9003,0.9017,0.9028,0.9033,0.9034,0.9043,0.9024,0.9024,0.9024,0.9024,0.8751,0.8775,0.8803,0.8847,0.8878,0.8915,0.8963,0.8977,0.9016,0.9019,0.9029,0.9029,0.9034,0.9043,0.9023,0.9024,0.9024,0.9024,0.9024,0.8748,0.8765,0.8789,0.884,0.8877,0.8917,0.8955,0.8982,0.9008,0.9017,0.9036,0.9036,0.904,0.9025,0.9025,0.9025,0.9025,0.9025,0.9025,0.8735,0.8763,0.8791,0.8837,0.8863,0.89,0.8951,0.8977,0.9012,0.9029,0.903,0.9048,0.9029,0.9023,0.9025,0.9025,0.9025,0.9025,0.9025,0.8749,0.8751,0.8794,0.882,0.8878,0.8913,0.8949,0.8999,0.9025,0.9043,0.9061,0.9042,0.9051,0.9051,0.9046,0.9054,0.9054,0.9054,0.9054,0.8746,0.8754,0.8806,0.8845,0.8887,0.8925,0.8974,0.9014,0.9056,0.9074,0.9078,0.9074,0.9073,0.9083,0.9082,0.9078,0.9094,0.9094,0.9094,0.8757,0.8771,0.8806,0.8848,0.8897,0.8938,0.8985,0.903,0.9078,0.9096,0.9089,0.9088,0.9083,0.9079,0.9094,0.9092,0.9086,0,0]}]]